Location: Arrien
(42.8963°N, 1.0429°E)
Time: 16:48:34
(UTC+00:00)

CZ-2D R/B - Pass Details

Date: 11 December 2025
Orbit: 525 x 597 km, 98.0° (Epoch: 22 January)

Event Time Altitude Azimuth Distance (km) Brightness Sun altitude
Rises 17:28:00 0° 138° (SE) 2,829 6.7 -11.8°
Reaches altitude 10° 17:30:24 10° 127° (SE) 1,927 5.8 -12.2°
Maximum altitude 17:33:57 28° 69° (ENE) 1,133 4.3 -12.8°
Drops below altitude 10° 17:37:30 10° 10° (N) 1,916 5.8 -13.4°
Sets 17:39:52 0° 359° (N) 2,810 6.8 -13.8°
